Location: ????????
(55.3573°N, 37.7365°E)
Time: 20:38:08
(UTC+00:00)

Daily predictions for brighter satellites

Satellite Brightness Start Highest point End
(mag) Time Altitude Azimuth Time Altitude Azimuth Time Altitude Azimuth
ARIANE 5 R/B 2.7 15:05:21 10° SSE 15:10:28 80° WSW 15:15:32 10° NNW
SJ-6F 4.3 15:06:44 10° SSE 15:10:39 77° ENE 15:14:35 10° NNW
SAR-Lupe-1 4.1 15:07:14 10° SSE 15:10:44 57° ENE 15:14:16 10° N
UNK 3.7 15:06:24 10° NNE 15:11:00 76° ESE 15:15:33 10° SSW
Okean 1 Rocket 3.1 15:07:40 10° N 15:12:04 62° ENE 15:16:23 10° SSE
CZ-4C R/B 2.2 15:07:56 10° SSW 15:12:09 48° SE 15:17:34 10° NE
NOSS 3-4 (A) 3.8 15:05:48 10° NW 15:12:12 82° NE 15:19:49 10° SE
NOSS 3-4 (C) 3.8 15:06:05 10° NW 15:12:30 82° NE 15:20:07 10° SE
SL-16 R/B 2.9 15:06:55 10° NNE 15:13:06 70° WNW 15:19:16 10° SSW
USA 290 2.1 15:11:50 10° SSW 15:15:01 82° ESE 15:18:14 10° NNE
Aureole 3 Rocket 2.9 15:15:01 10° N 15:19:04 47° ENE 15:22:17 10° SSE
Okean 2 Rocket 3.0 15:15:27 10° N 15:19:53 81° ENE 15:24:15 10° SSE
SL-16 R/B 2.8 15:14:47 10° NNW 15:20:05 39° NE 15:25:22 10° ESE
Cosmos 1378 Rocket 3.5 15:17:11 10° S 15:21:30 84° E 15:25:48 10° NNE
BREEZE-M DEB (TANK) 4.4 15:19:30 10° WSW 15:22:24 38° S 15:29:31 10° ESE
SJ-12 4.3 15:18:50 10° S 15:22:36 64° WSW 15:26:24 10° NNW
Cosmos 2227 Rocket 3.6 15:19:30 10° SE 15:23:05 17° E 15:26:40 10° ENE
Cosmos 1315 Rocket 3.7 15:20:00 10° NNW 15:23:42 53° W 15:27:24 10° S
Cosmos 2221 Rocket 3.9 15:22:32 10° SSE 15:26:49 46° E 15:31:09 10° NNE
SAR-Lupe-4 3.5 15:23:19 10° SSE 15:26:54 86° ENE 15:30:30 10° NNW
Cosmos 1025 Rocket 3.1 15:24:49 10° S 15:29:04 59° E 15:33:21 10° NNE
ATLAS 2AS CENTAUR R/B 3.3 15:23:20 10° W 15:30:02 49° NNW 15:36:38 10° ENE
Cosmos 2150 Rocket 4.1 15:25:49 10° NNW 15:30:56 55° NE 15:35:58 10° SE
BREEZE-M DEB (TANK) 4.4 15:27:31 10° WSW 15:31:26 50° S 15:45:47 10° ESE
Cosmos 1346 Rocket 4.5 15:30:10 10° ESE 15:31:09 12° E 15:31:09 12° E
Cosmos 2298 Rocket 4.1 15:29:37 10° NNW 15:34:52 56° ENE 15:40:03 10° SE
Cosmos 2123 Rocket 4.4 15:29:02 10° SSW 15:35:20 73° WNW 15:41:40 10° N
Sich 1 Rocket 3.7 15:31:53 10° NNW 15:36:28 87° WSW 15:41:01 10° S
SKYMED 2 3.6 15:35:40 10° NNE 15:39:59 61° ESE 15:44:18 10° S
GP-B 3.7 15:36:50 10° S 15:41:10 61° W 15:45:30 10° N
Resurs 1-3 3.6 15:40:15 10° SSE 15:44:34 84° WSW 15:48:54 10° NNW
BREEZE-M (TANK) 4.2 15:46:36 10° WSW 15:48:46 23° S 15:52:47 10° SE
USA 267 3.4 15:43:08 12° ENE 15:49:15 67° SSE 15:55:46 10° SW
CZ-4B R/B 4.4 15:48:18 15° E 15:50:53 21° NE 15:54:45 10° N
ATLAS CENTAUR R/B 2.3 15:49:27 10° NNW 15:51:34 18° NNE 15:52:30 16° NE
Resurs 01 Rocket 1.6 15:47:22 10° SSE 15:51:42 58° ENE 15:56:03 10° N
Lacrosse 5 rocket 0.9 15:48:28 10° W 15:51:59 78° NNW 15:54:24 20° ENE
Radarsat Rocket 4.1 15:47:22 10° SSE 15:53:19 89° WSW 15:59:54 10° NNW
CZ-4 R/B 2.6 15:52:51 18° ENE 15:53:33 19° ENE 15:56:16 10° NNE
Cosmos 1782 3.0 15:53:22 10° N 15:56:45 37° ENE 16:00:07 10° SE
Cosmos 1674 Rocket 4.1 15:54:29 10° SSW 15:58:52 63° WNW 16:03:17 10° N
CSL-04 Rocket 4.2 15:54:47 10° SE 15:59:33 36° ENE 16:04:20 10° N
Cosmos 2344 4.4 15:54:55 10° SSE 16:00:51 25° ESE 16:04:25 17° ENE
Cosmos 2082 Rocket 4.2 15:57:41 10° WNW 16:01:34 18° NNW 16:05:27 10° NNE
ERS-1 Rocket 4.2 16:00:19 18° ENE 16:01:52 21° NE 16:05:35 10° N
SL-19 R/B 4.4 15:56:07 10° SSE 16:02:14 87° ENE 16:08:03 10° NNW
CARTOSAT-1 3.4 15:58:46 10° SSE 16:02:58 89° E 16:07:13 10° NNW
Cosmos 1447 Rocket 4.4 15:59:12 10° S 16:05:19 83° E 16:11:31 10° NNE
Cosmos 2297 Rocket 2.2 16:01:14 10° SSW 16:06:50 65° ESE 16:12:27 10° NE
ARIANE 6 FM1 Upper Stage 2.4 16:02:56 10° NW 16:06:55 78° NE 16:09:27 21° ESE
Cosmos 1943 3.9 16:01:40 10° NNW 16:06:57 36° NE 16:10:06 21° E
RESURS DK-1 3.3 16:09:48 10° NNW 16:13:16 27° NE 16:14:11 25° ENE
SPOT 5 3.3 16:13:19 13° SE 16:17:23 43° ENE 16:22:16 10° N
IRAS Rocket 4.2 16:12:13 10° SSE 16:17:49 81° ENE 16:23:29 10° NNW
SeaSat 1 4.4 16:14:27 10° S 16:18:45 30° WSW 16:23:04 10° NW
Cosmos 1867 4.2 16:14:10 10° WSW 16:19:30 53° NNW 16:24:10 14° NE
NOSS 3-3 (C) 3.8 16:14:36 10° SW 16:20:04 86° SE 16:25:36 15° NE
Okean-O 4.5 16:22:28 14° NE 16:22:28 14° NE 16:24:09 10° NNE
Okean O Rocket 3.4 16:24:36 16° NE 16:24:36 16° NE 16:26:32 10° NNE
SJ-6B 2.3 16:21:44 10° SSE 16:25:11 84° ENE 16:28:39 10° NNW
Cosmos 2228 2.9 16:22:19 10° NNW 16:26:32 86° WSW 16:30:44 10° S
COSMO-SKYMED 1 2.4 16:22:40 10° NNE 16:26:49 83° WNW 16:30:55 10° SSW
PSLV R/B 4.3 16:24:14 10° S 16:28:14 51° W 16:32:15 10° NNW
Cosmos 1544 Rocket 3.5 16:24:18 10° N 16:28:35 56° ENE 16:31:54 16° SSE
Cosmos 1570 Rocket 3.9 16:23:43 10° SSW 16:28:59 79° ESE 16:34:15 10° NNE
Cosmos 2034 Rocket 3.9 16:23:19 10° N 16:29:29 65° ENE 16:35:38 10° SSE
Cosmos 1607 4.2 16:25:38 10° WSW 16:31:45 65° NW 16:36:58 15° NE
Meteor 1-31 Rocket 2.5 16:32:28 47° ESE 16:32:58 52° ENE 16:36:21 10° N
Cosmos 1455 Rocket 4.1 16:29:19 10° NNW 16:33:27 46° W 16:37:33 10° SSW
Cosmos 2263 Rocket 2.8 16:28:45 10° S 16:33:45 33° ESE 16:34:55 30° E
ADEOS 4.1 16:32:23 30° E 16:33:54 37° ENE 16:38:40 10° N
DMSP B5D1-3 4.4 16:28:56 10° NNE 16:34:04 71° ESE 16:39:09 10° S
Cosmos 1634 Rocket 4.3 16:29:48 10° N 16:35:54 46° ENE 16:39:43 22° SE
Cosmos 2237 Rocket 3.9 16:32:32 10° NW 16:37:35 34° WSW 16:42:37 10° S
Cosmos 1975 Rocket 2.9 16:35:03 10° S 16:39:23 76° E 16:43:43 10° NNE
CZ-4B R/B 3.7 16:37:56 28° SSE 16:39:52 67° ENE 16:43:42 10° N
Feng Yun 1-1 Rocket 4.5 16:41:06 24° SE 16:44:32 55° ENE 16:50:19 10° NNW
Cosmos 773 Rocket 3.9 16:40:28 10° SSW 16:45:45 84° ESE 16:51:04 10° NNE
Cosmos 972 Rocket 4.0 16:41:02 10° NNW 16:45:57 58° ENE 16:47:52 36° ESE
NOSS 3-3 (A) 4.1 16:41:04 10° WSW 16:46:35 71° NNW 16:51:18 20° NE
PAYLOAD B 4.4 16:44:10 29° SE 16:46:53 54° ENE 16:52:20 10° N
Cosmos 1833 Rocket 4.2 16:46:17 10° NNW 16:50:26 20° NNE 16:51:50 19° NE
Cosmos 2208 Rocket 3.9 16:46:01 10° SSW 16:51:17 86° ESE 16:56:40 10° NNE
Terra 2.4 16:52:46 37° NE 16:52:46 37° NE 16:56:49 10° N
Meteor 2-17 Rocket 4.5 16:47:50 10° SSW 16:53:55 81° WNW 17:00:01 10° N
Cosmos 1464 Rocket 4.4 16:50:12 10° NNW 16:56:31 65° W 17:02:44 10° S
Cosmos 2279 Rocket 4.2 16:51:06 10° N 16:57:03 46° ENE 16:58:26 40° ESE
CZ-4C R/B 2.6 16:55:37 10° WSW 17:00:20 55° NNW 17:03:44 25° NE
Cosmos 44 Rocket 3.2 16:57:22 10° SW 17:02:21 80° SE 17:03:58 44° NE
Cosmos 2084 Rocket 4.3 17:00:17 10° NW 17:04:10 35° NNE 17:04:18 34° NNE
SL-16 R/B 2.6 16:58:55 10° NW 17:04:30 61° WSW 17:08:54 17° SSE
Cosmos 1346 Rocket 2.7 17:02:31 10° SSW 17:05:39 64° SW 17:05:39 64° SW
Cosmos 2227 Rocket 2.0 17:00:35 10° SSW 17:06:14 77° ESE 17:09:38 25° NE
MetOp-B 4.0 17:15:56 59° ESE 17:16:40 66° ENE 17:22:00 10° NNW
Cosmos 1420 Rocket 4.1 17:16:53 10° NNW 17:21:43 55° NE 17:21:43 55° NE
ATLAS 2AS CENTAUR R/B 3.4 17:15:41 10° WNW 17:22:12 43° N 17:24:21 34° NE
ATLAS CENTAUR R/B 3.2 17:22:54 10° NW 17:23:42 17° NW 17:23:42 17° NW
CZ-4 R/B 1.9 17:27:51 51° WNW 17:27:51 51° WNW 17:31:00 10° NNW
Resurs 01 Rocket 4.0 17:24:56 10° SW 17:28:24 23° W 17:31:56 10° NW
Lacrosse 5 rocket 2.3 17:25:26 10° WNW 17:27:50 40° WNW 17:27:50 40° WNW
IRS-1A Rocket 4.2 17:29:14 63° ENE 17:29:24 64° ENE 17:35:01 10° NNW
CZ-4B R/B 3.0 17:30:09 70° SSE 17:30:48 85° ENE 17:36:09 10° NNW
MOS 1-B 4.3 17:31:40 60° ENE 17:31:40 60° ENE 17:37:18 10° NNW
USA 267 3.2 17:30:28 49° ENE 17:32:28 81° N 17:39:01 10° W
CZ-4B DEB 4.4 17:33:03 32° S 17:35:36 68° WSW 17:41:04 10° NNW
CSL-04 Rocket 4.4 17:35:40 16° S 17:39:46 49° W 17:44:55 10° NNW
ERS-1 Rocket 2.9 17:40:10 84° NW 17:40:10 84° NW 17:45:04 10° NNW
Cosmos 44 4.1 17:36:12 10° NW 17:40:56 45° NNE 17:40:56 45° NNE
ARIANE 6 FM1 Upper Stage 4.5 17:42:21 10° WNW 17:45:29 24° SW 17:45:29 24° SW
Cosmos 2082 Rocket 4.1 17:43:59 10° NNW 17:47:53 18° NNE 17:48:32 18° NNE
RESURS DK-1 3.8 17:47:01 10° NW 17:49:28 35° WNW 17:49:28 35° WNW
Cosmos 2297 Rocket 3.5 17:46:00 10° WSW 17:51:15 37° NW 17:55:14 16° NNE
Cosmos 1943 3.3 17:45:43 10° NW 17:51:23 67° WSW 17:51:54 63° SSW
Tsikada Rocket 4.0 17:46:18 10° SSW 17:52:28 79° WNW 17:58:43 10° N
SPOT 5 4.3 17:52:21 19° SSW 17:55:24 37° W 18:00:11 10° NNW
Okean-O 4.4 17:59:48 25° N 17:59:48 25° N 18:01:38 10° NNW
Okean O Rocket 3.4 18:01:49 26° NNW 18:01:49 26° NNW 18:03:45 10° NNW
Spot 2 Rocket 4.4 18:06:26 42° NNW 18:06:26 42° NNW 18:09:46 10° NNW
Iridium 4 Rocket 4.3 18:01:06 10° N 18:04:30 41° NNW 18:04:30 41° NNW
Cosmos 1603 4.0 18:01:31 10° NW 18:06:12 63° NNW 18:06:12 63° NNW
Cosmos 2180 Rocket 4.5 18:02:21 10° NNW 18:08:10 77° NNW 18:08:10 77° NNW
Cosmos 2056 Rocket 4.4 18:07:57 10° NNW 18:11:25 42° NNW 18:11:25 42° NNW
ADEOS 4.3 18:13:06 47° WSW 18:13:19 47° W 18:18:22 10° NNW
Cosmos 2344 3.2 18:06:38 10° SW 18:14:07 86° SE 18:14:29 82° ENE
Cosmos 2263 Rocket 2.7 18:11:43 10° SW 18:16:41 58° W 18:16:41 58° W
Terra 3.4 18:31:24 32° WNW 18:31:24 32° WNW 18:34:27 10° NNW
USA 281 4.3 18:34:00 32° NNE 18:34:00 32° NNE 18:38:42 10° NNW
Cosmos 909 Rocket 4.5 18:28:43 10° NW 18:33:54 58° NNW 18:33:54 58° NNW
Cosmos 1833 Rocket 4.1 18:30:17 10° NNW 18:33:30 31° N 18:33:30 31° N
CZ-4C R/B 3.5 18:44:31 10° WNW 18:48:41 37° NNW 18:48:41 37° NNW
Cosmos 2227 Rocket 3.7 18:45:45 10° W 18:50:50 33° NW 18:51:30 32° NNW
ATLAS 2AS CENTAUR R/B 3.5 19:07:11 10° NW 19:11:46 45° NW 19:11:46 45° NW
USA 267 4.1 19:17:49 44° WNW 19:17:49 44° WNW 19:22:03 10° WNW
Cosmos 2082 Rocket 4.4 19:28:21 10° NNW 19:30:22 20° NNW 19:30:22 20° NNW
Cosmos 2297 Rocket 4.5 19:33:03 10° WNW 19:36:56 18° NNW 19:37:04 18° NNW
CENTAUR R/B 4.3 23:07:19 31° NE 23:07:19 31° NE 23:11:15 10° NE
ACS3 Solar Sail 3.8 23:21:17 10° NNE 23:23:03 20° NNE 23:23:03 20° NNE
SL-16 R/B 4.2 23:43:02 27° NNE 23:43:02 27° NNE 23:46:17 10° N
Cosmos 2369 Rocket 4.3 23:52:33 22° NNE 23:52:33 22° NNE 23:54:33 10° NNE
